Weather History for Metropolis, IL

Change the Weather History Date:

Wednesday, February 19, 2014

  Actual Average (KPAH) Record (KPAH)
Temperature  
Mean Temperature 50 °F 40 °F  
Max Temperature 58 °F 50 °F 71 °F (1994)
Min Temperature 43 °F 31 °F 1 °F (1978)
Degree Days  
Heating Degree Days 14 25  
Month to date heating degree days 515  
Since 1 July heating degree days 3088  
Cooling Degree Days 0 0  
Month to date cooling degree days 0  
Year to date cooling degree days 0  
Moisture  
Dew Point 38 °F    
Average Humidity 61    
Maximum Humidity 98    
Minimum Humidity 38    
Precipitation  
Precipitation 0.00 in 0.14 in 0.88 in (2002)
Month to date precipitation 2.66  
Year to date precipitation 6.34  
Snow  
Snow 0.00 in 0.20 in 1.90 in (2006)
Month to date snowfall 2.4  
Since 1 July snowfall 7.7  
Snow Depth -    
Sea Level Pressure  
Sea Level Pressure 29.95 in    
Wind  
Wind Speed 7 mph (ENE)    
Max Wind Speed 15 mph    
Max Gust Speed 25 mph    
Visibility 9 miles    
Events      
T = Trace of Precipitation, MM = Missing Value Source: NWS Daily Summary

Daily Weather History Graph

Daily Weather History Graph

Search for Another Location

Airport:

Trip Planner

Search our weather history database for the weather conditions in past years. The results will help you decide how hot, cold, wet, or windy it might be!

Date:

Astronomy

Feb. 19, 2014 Rise Set
Actual Time 6:39 AM CST 5:39 PM CST
Civil Twilight 6:12 AM CST 6:05 PM CST
Nautical Twilight 5:42 AM CST 6:35 PM CST
Astronomical Twilight 5:12 AM CST 7:06 PM CST
Moon 10:24 PM CST (2/19) 8:51 AM CST (2/19)
Length of Visible Light 11h 52m
Length of Day
11h 00m
Waning Gibbous, 79% of the Moon is Illuminated
Feb 19
Waning Gibbous
Feb 22
Last Quarter
Mar 1
New
Mar 8
First Quarter
Mar 16
Full

Hourly Weather History & Observations

Time (CST) Temp. Dew Point Humidity Pressure Visibility Wind Dir Wind Speed Gust Speed Precip Events Conditions
12:15 AM 57.2 °F 55.4 °F 94% 29.82 in 4.0 mi WSW 11.5 mph 16.1 mph N/A   Overcast
12:35 AM 58.1 °F 56.3 °F 94% 29.82 in 4.0 mi WSW 15.0 mph 20.7 mph N/A   Overcast
12:55 AM 57.9 °F 56.3 °F 94% 29.82 in 4.0 mi WSW 12.7 mph 25.3 mph N/A   Overcast
1:15 AM 57.2 °F 55.9 °F 96% 29.82 in 4.0 mi WSW 12.7 mph 17.3 mph N/A   Overcast
1:35 AM 57.2 °F 55.8 °F 95% 29.83 in 4.0 mi WSW 10.4 mph 16.1 mph N/A   Overcast
1:55 AM 57.2 °F 55.9 °F 96% 29.83 in 4.0 mi WSW 11.5 mph 16.1 mph N/A   Overcast
2:15 AM 57.2 °F 55.8 °F 95% 29.83 in 4.0 mi WSW 12.7 mph 16.1 mph N/A   Overcast
2:35 AM 56.8 °F 55.4 °F 95% 29.84 in 4.0 mi WSW 8.1 mph 19.6 mph N/A   Overcast
2:55 AM 56.3 °F 55.4 °F 97% 29.85 in 3.0 mi West 10.4 mph 18.4 mph N/A   Overcast
3:15 AM 55.0 °F 53.8 °F 96% 29.86 in 3.0 mi WSW 9.2 mph - N/A   Overcast
3:35 AM 54.1 °F 53.2 °F 97% 29.86 in 3.0 mi WSW 6.9 mph 16.1 mph N/A   Overcast
3:55 AM 53.6 °F 52.7 °F 97% 29.87 in 2.5 mi West 8.1 mph - N/A   Overcast
4:15 AM 52.5 °F 52.0 °F 98% 29.88 in 2.0 mi West 6.9 mph - N/A   Overcast
4:35 AM 51.3 °F 50.2 °F 96% 29.90 in 5.0 mi West 8.1 mph - N/A   Scattered Clouds
4:55 AM 50.9 °F 43.7 °F 76% 29.91 in 10.0 mi WNW 8.1 mph - N/A   Clear
5:15 AM 49.5 °F 40.1 °F 70% 29.91 in 10.0 mi WNW 5.8 mph - N/A   Clear
5:35 AM 48.6 °F 38.8 °F 69% 29.93 in 10.0 mi NW 5.8 mph - N/A   Clear
5:55 AM 48.6 °F 34.3 °F 58% 29.94 in 10.0 mi NW 4.6 mph - N/A   Clear
6:15 AM 47.3 °F 32.2 °F 56% 29.96 in 10.0 mi NW 4.6 mph - N/A   Clear
6:35 AM 47.1 °F 32.0 °F 56% 29.96 in 10.0 mi Calm Calm - N/A   Clear
6:55 AM 46.0 °F 32.0 °F 58% 29.97 in 10.0 mi Calm Calm - N/A   Clear
7:15 AM 44.6 °F 32.0 °F 61% 29.99 in 10.0 mi Calm Calm - N/A   Clear
7:35 AM 43.0 °F 32.9 °F 68% 30.00 in 10.0 mi Calm Calm - N/A   Clear
7:55 AM 43.0 °F 34.0 °F 71% 30.01 in 10.0 mi Calm Calm - N/A   Clear
8:15 AM 45.9 °F 34.5 °F 65% 30.03 in 10.0 mi Calm Calm - N/A   Clear
8:35 AM 47.8 °F 33.6 °F 58% 30.03 in 10.0 mi Calm Calm - N/A   Clear
8:55 AM 48.2 °F 33.1 °F 56% 30.04 in 10.0 mi Calm Calm - N/A   Clear
9:15 AM 49.1 °F 32.0 °F 52% 30.04 in 10.0 mi NNW 3.5 mph - N/A   Clear
9:35 AM 49.5 °F 32.7 °F 53% 30.05 in 10.0 mi North 8.1 mph - N/A   Clear
9:55 AM 50.0 °F 34.0 °F 54% 30.05 in 10.0 mi North 6.9 mph - N/A   Clear
10:15 AM 50.0 °F 33.8 °F 54% 30.05 in 10.0 mi North 5.8 mph - N/A   Clear
10:35 AM 50.9 °F 33.4 °F 51% 30.05 in 10.0 mi Calm Calm - N/A   Clear
10:55 AM 52.2 °F 34.3 °F 51% 30.04 in 10.0 mi NE 3.5 mph - N/A   Clear
11:15 AM 52.7 °F 33.1 °F 47% 30.06 in 10.0 mi Calm Calm - N/A   Clear
11:35 AM 53.2 °F 34.5 °F 49% 30.05 in 10.0 mi West 3.5 mph - N/A   Clear
11:55 AM 54.3 °F 34.7 °F 48% 30.04 in 10.0 mi Calm Calm - N/A   Clear
12:15 PM 54.0 °F 32.0 °F 43% 30.04 in 10.0 mi Calm Calm - N/A   Clear
12:35 PM 54.9 °F 32.9 °F 43% 30.04 in 10.0 mi North 4.6 mph - N/A   Clear
12:55 PM 56.3 °F 32.0 °F 40% 30.04 in 10.0 mi Calm Calm - N/A   Clear
1:15 PM 56.1 °F 30.9 °F 38% 30.02 in 10.0 mi NNE 3.5 mph - N/A   Clear
1:35 PM 56.7 °F 31.6 °F 39% 30.01 in 10.0 mi Calm Calm - N/A   Clear
1:55 PM 56.5 °F 31.8 °F 39% 30.01 in 10.0 mi Calm Calm - N/A   Clear
2:15 PM 57.0 °F 34.0 °F 42% 30.00 in 10.0 mi ESE 5.8 mph - N/A   Clear
2:35 PM 56.7 °F 32.4 °F 40% 30.00 in 10.0 mi Calm Calm - N/A   Clear
2:55 PM 57.7 °F 33.4 °F 40% 30.00 in 10.0 mi SE 3.5 mph - N/A   Clear
3:15 PM 58.1 °F 34.3 °F 41% 29.99 in 10.0 mi East 5.8 mph - N/A   Clear
3:35 PM 57.9 °F 33.6 °F 40% 29.99 in 10.0 mi ENE 3.5 mph - N/A   Clear
3:55 PM 57.2 °F 32.4 °F 39% 29.99 in 10.0 mi Calm Calm - N/A   Clear
4:15 PM 57.2 °F 33.8 °F 41% 29.98 in 10.0 mi ESE 3.5 mph - N/A   Clear
4:35 PM 56.3 °F 33.4 °F 42% 29.97 in 10.0 mi East 5.8 mph - N/A   Clear
4:55 PM 55.4 °F 34.3 °F 45% 29.96 in 10.0 mi ESE 3.5 mph - N/A   Clear
5:15 PM 55.4 °F 34.2 °F 45% 29.97 in 10.0 mi ESE 3.5 mph - N/A   Clear
5:35 PM 53.6 °F 34.5 °F 48% 29.97 in 10.0 mi Calm Calm - N/A   Clear
5:55 PM 52.9 °F 34.2 °F 49% 29.98 in 10.0 mi Calm Calm - N/A   Clear
6:15 PM 51.8 °F 34.7 °F 52% 29.97 in 10.0 mi East 3.5 mph - N/A   Clear
6:35 PM 51.1 °F 34.2 °F 52% 29.97 in 10.0 mi Calm Calm - N/A   Clear
6:55 PM 50.9 °F 34.0 °F 52% 29.96 in 10.0 mi East 3.5 mph - N/A   Clear
7:15 PM 50.0 °F 33.8 °F 54% 29.95 in 10.0 mi East 4.6 mph - N/A   Clear
7:35 PM 49.1 °F 33.6 °F 55% 29.93 in 10.0 mi East 4.6 mph - N/A   Clear
7:55 PM 49.1 °F 33.8 °F 56% 29.93 in 10.0 mi East 4.6 mph - N/A   Clear
8:15 PM 49.1 °F 33.8 °F 56% 29.93 in 10.0 mi East 5.8 mph - N/A   Clear
8:35 PM 49.3 °F 34.0 °F 56% 29.92 in 10.0 mi East 4.6 mph - N/A   Scattered Clouds
8:55 PM 49.3 °F 33.8 °F 55% 29.92 in 10.0 mi East 3.5 mph - N/A   Scattered Clouds
9:15 PM 49.1 °F 33.4 °F 55% 29.92 in 10.0 mi East 3.5 mph - N/A   Clear
9:35 PM 48.4 °F 34.0 °F 58% 29.91 in 10.0 mi Calm Calm - N/A   Scattered Clouds
9:55 PM 48.2 °F 34.2 °F 58% 29.90 in 10.0 mi East 6.9 mph - N/A   Mostly Cloudy
10:15 PM 48.2 °F 34.3 °F 59% 29.89 in 10.0 mi East 5.8 mph - N/A   Mostly Cloudy
10:35 PM 48.7 °F 34.2 °F 57% 29.88 in 10.0 mi ESE 4.6 mph - N/A   Overcast
10:55 PM 49.3 °F 33.8 °F 55% 29.86 in 10.0 mi ESE 6.9 mph - N/A   Mostly Cloudy
11:15 PM 49.5 °F 33.8 °F 55% 29.86 in 10.0 mi ESE 6.9 mph - N/A   Mostly Cloudy
11:35 PM 49.8 °F 33.8 °F 54% 29.84 in 10.0 mi ESE 5.8 mph - N/A   Mostly Cloudy
11:55 PM 50.0 °F 34.0 °F 54% 29.83 in 10.0 mi ESE 6.9 mph - N/A   Mostly Cloudy